| time (UTC) | temp F | wind direction | speed MPH | gust MPH | rain 1hr in | rain 24hr in | rain mn in | humidity % | barometer mb |
| 20260902230703 | 83 | 113 | 4.0 | 8.0 | 0.00 | 0.02 | 0.02 | 85 | 1010.0 |
| 20260902230202 | 83 | 81 | 4.0 | 8.0 | 0.00 | 0.02 | 0.02 | 85 | 1010.0 |
| 20260902230003 | 83 | 78 | 4.0 | 8.0 | 0.00 | 0.02 | 0.02 | 84 | 1009.9 |
| 20260902225948 | 83 | 84 | 4.0 | 8.0 | 0.00 | 0.02 | 0.02 | 84 | 1010.0 |
| 20260902225451 | 84 | 129 | 4.0 | 9.0 | 0.00 | 0.02 | 0.02 | 85 | 1010.0 |
| 20260902224702 | 84 | 84 | 5.0 | 10.0 | 0.00 | 0.02 | 0.02 | 84 | 1010.0 |
| 20260902224505 | 83 | 113 | 5.0 | 10.0 | 0.00 | 0.02 | 0.02 | 84 | 1009.9 |
| 20260902224202 | 84 | 103 | 4.0 | 10.0 | 0.00 | 0.02 | 0.02 | 83 | 1010.0 |
| 20260902223703 | 84 | 72 | 4.0 | 8.0 | 0.00 | 0.02 | 0.02 | 83 | 1010.0 |
| 20260902223202 | 84 | 112 | 4.0 | 8.0 | 0.00 | 0.02 | 0.02 | 83 | 1010.0 |
| 20260902223008 | 83 | 97 | 5.0 | 8.0 | 0.00 | 0.02 | 0.02 | 83 | 1009.9 |
| 20260902222705 | 84 | 78 | 3.0 | 7.0 | 0.00 | 0.02 | 0.02 | 83 | 1010.0 |
| 20260902222203 | 84 | 75 | 3.0 | 7.0 | 0.00 | 0.02 | 0.02 | 83 | 1010.0 |
| 20260902221702 | 84 | 82 | 2.0 | 7.0 | 0.00 | 0.02 | 0.02 | 84 | 1010.0 |
| 20260902221505 | 83 | 98 | 2.0 | 6.0 | 0.00 | 0.02 | 0.02 | 84 | 1010.0 |
| 20260902221204 | 84 | 76 | 2.0 | 6.0 | 0.00 | 0.02 | 0.02 | 83 | 1010.1 |
| 20260902220945 | 84 | 76 | 2.0 | 6.0 | 0.00 | 0.02 | 0.02 | 84 | 1010.1 |
| 20260902220201 | 84 | 92 | 3.0 | 6.0 | 0.00 | 0.02 | 0.02 | 83 | 1010.1 |
| 20260902220003 | 83 | 67 | 2.0 | 5.0 | 0.00 | 0.02 | 0.02 | 83 | 1010.2 |
| 20260902215703 | 84 | 74 | 2.0 | 6.0 | 0.00 | 0.02 | 0.02 | 83 | 1010.3 |
| 20260902215203 | 84 | 77 | 3.0 | 8.0 | 0.00 | 0.02 | 0.02 | 84 | 1010.3 |
| 20260902214702 | 84 | 71 | 4.0 | 8.0 | 0.00 | 0.02 | 0.02 | 84 | 1010.3 |
| 20260902214506 | 84 | 85 | 4.0 | 8.0 | 0.00 | 0.02 | 0.02 | 84 | 1010.2 |
| 20260902214446 | 84 | 115 | 3.0 | 6.0 | 0.00 | 0.02 | 0.02 | 83 | 1010.4 |
| 20260902213949 | 85 | 105 | 4.0 | 6.0 | 0.00 | 0.02 | 0.02 | 84 | 1010.4 |
| 20260902213202 | 85 | 86 | 4.0 | 8.0 | 0.00 | 0.02 | 0.02 | 83 | 1010.4 |
| 20260902213005 | 84 | 78 | 4.0 | 8.0 | 0.00 | 0.02 | 0.02 | 83 | 1010.0 |
| 20260902212702 | 85 | 86 | 4.0 | 8.0 | 0.00 | 0.02 | 0.02 | 83 | 1010.1 |
| 20260902212202 | 85 | 75 | 4.0 | 8.0 | 0.00 | 0.02 | 0.02 | 82 | 1010.1 |
| 20260902211703 | 85 | 74 | 5.0 | 10.0 | 0.00 | 0.02 | 0.02 | 82 | 1010.1 |
| 20260902211502 | 85 | 80 | 3.0 | 10.0 | 0.00 | 0.02 | 0.02 | 83 | 1009.9 |
| 20260902211449 | 85 | 114 | 5.0 | 10.0 | 0.00 | 0.02 | 0.02 | 83 | 1010.0 |
| 20260902210703 | 85 | 97 | 4.0 | 10.0 | 0.00 | 0.02 | 0.02 | 83 | 1010.0 |
| 20260902210202 | 85 | 90 | 6.0 | 10.0 | 0.00 | 0.02 | 0.02 | 82 | 1010.0 |
| 20260902210005 | 85 | 96 | 4.0 | 10.0 | 0.00 | 0.02 | 0.02 | 83 | 1010.3 |
| 20260902205703 | 85 | 69 | 6.0 | 10.0 | 0.00 | 0.02 | 0.02 | 83 | 1010.4 |
| 20260902205204 | 85 | 96 | 6.0 | 9.0 | 0.00 | 0.02 | 0.02 | 83 | 1010.4 |
| 20260902204706 | 85 | 92 | 6.0 | 9.0 | 0.00 | 0.02 | 0.02 | 83 | 1010.4 |
| 20260902204503 | 85 | 116 | 5.0 | 9.0 | 0.00 | 0.02 | 0.02 | 84 | 1010.3 |
| 20260902204207 | 85 | 84 | 6.0 | 11.0 | 0.00 | 0.02 | 0.02 | 85 | 1010.5 |
| 20260902203702 | 85 | 103 | 6.0 | 11.0 | 0.00 | 0.02 | 0.02 | 85 | 1010.5 |
| 20260902203202 | 85 | 124 | 5.0 | 10.0 | 0.00 | 0.02 | 0.02 | 85 | 1010.5 |
| 20260902203031 | 85 | 110 | 5.0 | 10.0 | 0.00 | 0.02 | 0.02 | 84 | 1010.2 |
| 20260902202701 | 85 | 83 | 5.0 | 8.0 | 0.00 | 0.02 | 0.02 | 85 | 1010.3 |
| 20260902202201 | 85 | 74 | 5.0 | 10.0 | 0.00 | 0.02 | 0.02 | 84 | 1010.3 |
| 20260902201702 | 86 | 86 | 5.0 | 11.0 | 0.00 | 0.02 | 0.02 | 85 | 1010.3 |
| 20260902201535 | 85 | 118 | 5.0 | 10.0 | 0.00 | 0.02 | 0.02 | 85 | 1010.3 |
| 20260902201253 | 85 | 126 | 6.0 | 11.0 | 0.00 | 0.02 | 0.02 | 85 | 1010.4 |
| 20260902201237 | 86 | 134 | 5.0 | 11.0 | 0.00 | 0.02 | 0.02 | 85 | 1010.4 |
| 20260902200201 | 85 | 125 | 5.0 | 11.0 | 0.00 | 0.02 | 0.02 | 85 | 1010.4 |
| 20260902200033 | 85 | 123 | 6.0 | 11.0 | 0.00 | 0.02 | 0.02 | 85 | 1010.4 |
| 20260902195701 | 85 | 119 | 5.0 | 10.0 | 0.00 | 0.02 | 0.02 | 85 | 1010.5 |
| 20260902195202 | 85 | 111 | 6.0 | 9.0 | 0.00 | 0.02 | 0.02 | 85 | 1010.5 |
| 20260902194954 | 85 | 104 | 6.0 | 11.0 | 0.00 | 0.02 | 0.02 | 85 | 1010.5 |
| 20260902194536 | 85 | 123 | 4.0 | 11.0 | 0.00 | 0.02 | 0.02 | 85 | 1010.5 |
| 20260902194201 | 85 | 98 | 6.0 | 11.0 | 0.00 | 0.02 | 0.02 | 85 | 1010.7 |
| 20260902193701 | 85 | 92 | 5.0 | 9.0 | 0.00 | 0.02 | 0.02 | 84 | 1010.7 |
| 20260902193203 | 86 | 74 | 5.0 | 9.0 | 0.00 | 0.02 | 0.02 | 84 | 1010.7 |
| 20260902193007 | 85 | 104 | 5.0 | 9.0 | 0.00 | 0.02 | 0.02 | 84 | 1010.8 |
| 20260902192947 | 85 | 131 | 5.0 | 9.0 | 0.00 | 0.02 | 0.02 | 84 | 1011.0 |
| 20260902192201 | 85 | 113 | 4.0 | 8.0 | 0.00 | 0.02 | 0.02 | 83 | 1011.0 |
| 20260902191702 | 86 | 105 | 4.0 | 9.0 | 0.00 | 0.02 | 0.02 | 84 | 1011.0 |
| 20260902191536 | 85 | 88 | 3.0 | 9.0 | 0.00 | 0.02 | 0.02 | 84 | 1010.9 |
| 20260902191201 | 85 | 92 | 5.0 | 9.0 | 0.00 | 0.02 | 0.02 | 84 | 1011.0 |
| 20260902190701 | 85 | 101 | 4.0 | 9.0 | 0.00 | 0.02 | 0.02 | 83 | 1011.0 |
| 20260902190201 | 85 | 126 | 4.0 | 9.0 | 0.00 | 0.02 | 0.02 | 84 | 1011.0 |
| 20260902190030 | 85 | 103 | 3.0 | 9.0 | 0.00 | 0.02 | 0.02 | 84 | 1011.0 |
| 20260902185959 | 85 | 67 | 4.0 | 8.0 | 0.00 | 0.02 | 0.02 | 84 | 1011.1 |
| 20260902185203 | 85 | 95 | 4.0 | 8.0 | 0.00 | 0.02 | 0.02 | 85 | 1011.1 |
| 20260902184702 | 85 | 111 | 4.0 | 8.0 | 0.00 | 0.02 | 0.02 | 85 | 1011.1 |
| 20260902184508 | 84 | 84 | 3.0 | 8.0 | 0.00 | 0.02 | 0.02 | 85 | 1011.3 |
| 20260902184202 | 84 | 98 | 5.0 | 9.0 | 0.00 | 0.02 | 0.02 | 85 | 1011.4 |
| 20260902183657 | 84 | 86 | 5.0 | 9.0 | 0.00 | 0.02 | 0.02 | 85 | 1011.4 |
| 20260902183155 | 84 | 123 | 5.0 | 8.0 | 0.00 | 0.02 | 0.02 | 86 | 1011.4 |
| 20260902183007 | 84 | 75 | 4.0 | 8.0 | 0.00 | 0.02 | 0.02 | 86 | 1011.4 |
| 20260902182655 | 84 | 101 | 4.0 | 8.0 | 0.00 | 0.02 | 0.02 | 86 | 1011.5 |
| 20260902182152 | 84 | 99 | 4.0 | 8.0 | 0.00 | 0.02 | 0.02 | 87 | 1011.5 |
| 20260902181653 | 83 | 111 | 4.0 | 9.0 | 0.00 | 0.02 | 0.02 | 86 | 1011.5 |
| 20260902181505 | 83 | 103 | 3.0 | 8.0 | 0.00 | 0.02 | 0.02 | 86 | 1011.4 |
| 20260902181152 | 83 | 115 | 5.0 | 9.0 | 0.00 | 0.02 | 0.02 | 86 | 1011.5 |
| 20260902180652 | 84 | 119 | 5.0 | 9.0 | 0.00 | 0.02 | 0.02 | 86 | 1011.5 |
| 20260902180150 | 84 | 118 | 3.0 | 9.0 | 0.00 | 0.02 | 0.02 | 87 | 1011.5 |
| 20260902180104 | 83 | 96 | 5.0 | 9.0 | 0.00 | 0.02 | 0.02 | 86 | 1011.4 |
| 20260902175650 | 84 | 74 | 2.0 | 7.0 | 0.00 | 0.02 | 0.02 | 87 | 1011.5 |
| 20260902175443 | 84 | 81 | 3.0 | 8.0 | 0.00 | 0.02 | 0.02 | 87 | 1011.5 |
| 20260902174648 | 84 | 92 | 3.0 | 8.0 | 0.00 | 0.02 | 0.02 | 86 | 1011.5 |
| 20260902174545 | 83 | 78 | 2.0 | 8.0 | 0.00 | 0.02 | 0.02 | 86 | 1011.7 |
| 20260902174448 | 84 | 86 | 3.0 | 6.0 | 0.00 | 0.02 | 0.02 | 86 | 1011.8 |
| 20260902173648 | 84 | 65 | 4.0 | 7.0 | 0.00 | 0.02 | 0.02 | 86 | 1011.8 |
| 20260902173237 | 84 | 103 | 4.0 | 7.0 | 0.00 | 0.02 | 0.02 | 86 | 1012.0 |
| 20260902173219 | 84 | 98 | 4.0 | 7.0 | 0.00 | 0.02 | 0.02 | 86 | 1012.0 |
| 20260902172137 | 84 | 109 | 4.0 | 7.0 | 0.00 | 0.02 | 0.02 | 85 | 1012.0 |
| 20260902171634 | 84 | 119 | 3.0 | 6.0 | 0.00 | 0.02 | 0.02 | 85 | 1012.0 |
| 20260902171507 | 84 | 92 | 4.0 | 5.0 | 0.00 | 0.02 | 0.02 | 85 | 1011.9 |
| 20260902171135 | 85 | 94 | 2.0 | 6.0 | 0.00 | 0.02 | 0.02 | 85 | 1012.0 |
| 20260902170632 | 85 | 66 | 2.0 | 6.0 | 0.00 | 0.02 | 0.02 | 85 | 1012.0 |
| 20260902170427 | 85 | 79 | 2.0 | 6.0 | 0.00 | 0.02 | 0.02 | 85 | 1012.1 |
| 20260902170006 | 84 | 92 | 1.0 | 4.0 | 0.00 | 0.02 | 0.02 | 85 | 1012.0 |
| 20260902165632 | 85 | 109 | 2.0 | 6.0 | 0.00 | 0.02 | 0.02 | 85 | 1012.1 |
| 20260902165428 | 85 | 107 | 3.0 | 8.0 | 0.00 | 0.02 | 0.02 | 85 | 1012.1 |
| 20260902164632 | 85 | 71 | 3.0 | 8.0 | 0.00 | 0.02 | 0.02 | 85 | 1012.5 |
| 20260902164505 | 84 | 140 | 3.0 | 8.0 | 0.00 | 0.02 | 0.02 | 84 | 1012.3 |
| 20260902164129 | 85 | 93 | 3.0 | 6.0 | 0.00 | 0.02 | 0.02 | 84 | 1012.5 |
| 20260902163726 | 85 | 75 | 2.0 | 9.0 | 0.00 | 0.02 | 0.02 | 85 | 1012.6 |
| 20260902163704 | 85 | 342 | 3.0 | 9.0 | 0.00 | 0.02 | 0.02 | 85 | 1012.5 |
| 20260902163007 | 85 | 95 | 3.0 | 7.0 | 0.00 | 0.02 | 0.02 | 84 | 1012.4 |
| 20260902162630 | 86 | 65 | 2.0 | 7.0 | 0.00 | 0.02 | 0.02 | 84 | 1012.6 |
| 20260902162130 | 86 | 81 | 2.0 | 7.0 | 0.00 | 0.02 | 0.02 | 84 | 1012.6 |
| 20260902161629 | 86 | 75 | 1.0 | 5.0 | 0.00 | 0.02 | 0.02 | 83 | 1012.6 |
| 20260902161605 | 86 | 84 | 1.0 | 5.0 | 0.00 | 0.02 | 0.02 | 83 | 1012.5 |
| 20260902161128 | 87 | 98 | 1.0 | 5.0 | 0.00 | 0.02 | 0.02 | 82 | 1012.6 |
| 20260902160630 | 87 | 32 | 1.0 | 3.0 | 0.00 | 0.02 | 0.02 | 82 | 1012.6 |
| 20260902160129 | 86 | 323 | 2.0 | 6.0 | 0.00 | 0.02 | 0.02 | 81 | 1013.0 |
| 20260902160036 | 86 | 15 | 1.0 | 6.0 | 0.00 | 0.02 | 0.02 | 82 | 1012.9 |
| 20260902155629 | 87 | 101 | 2.0 | 6.0 | 0.00 | 0.02 | 0.02 | 81 | 1013.0 |
| 20260902155130 | 86 | 342 | 1.0 | 3.0 | 0.00 | 0.02 | 0.02 | 80 | 1013.0 |
| 20260902154628 | 86 | 11 | 2.0 | 6.0 | 0.00 | 0.02 | 0.02 | 81 | 1012.9 |
| 20260902154531 | 85 | 34 | 0.0 | 5.0 | 0.00 | 0.02 | 0.02 | 82 | 1012.8 |
| 20260902154130 | 86 | 95 | 2.0 | 6.0 | 0.00 | 0.02 | 0.02 | 82 | 1012.9 |
| 20260902153923 | 87 | 299 | 1.0 | 3.0 | 0.00 | 0.02 | 0.02 | 82 | 1012.9 |
| 20260902153130 | 86 | 25 | 1.0 | 3.0 | 0.00 | 0.02 | 0.02 | 82 | 1012.7 |
| 20260902153032 | 86 | 25 | 1.0 | 3.0 | 0.00 | 0.02 | 0.02 | 82 | 1012.6 |
| 20260902152630 | 86 | 317 | 1.0 | 3.0 | 0.00 | 0.02 | 0.02 | 83 | 1012.7 |
| 20260902152130 | 85 | 340 | 1.0 | 3.0 | 0.00 | 0.02 | 0.02 | 83 | 1012.7 |
| 20260902151629 | 85 | 142 | 1.0 | 3.0 | 0.00 | 0.02 | 0.02 | 83 | 1012.6 |
| 20260902151511 | 85 | 60 | 0.0 | 3.0 | 0.00 | 0.02 | 0.02 | 84 | 1012.4 |
| 20260902151135 | 85 | 34 | 1.0 | 5.0 | 0.00 | 0.02 | 0.02 | 85 | 1012.6 |
| 20260902150920 | 85 | 106 | 2.0 | 5.0 | 0.00 | 0.02 | 0.02 | 85 | 1012.6 |
| 20260902150420 | 85 | 88 | 1.0 | 4.0 | 0.00 | 0.02 | 0.02 | 85 | 1012.7 |
| 20260902150055 | 84 | 32 | 2.0 | 4.0 | 0.00 | 0.02 | 0.02 | 85 | 1012.6 |
| 20260902145631 | 85 | 80 | 1.0 | 4.0 | 0.00 | 0.02 | 0.02 | 85 | 1012.7 |
| 20260902145129 | 85 | 331 | 1.0 | 3.0 | 0.00 | 0.02 | 0.02 | 85 | 1012.7 |
| 20260902144628 | 85 | 36 | 1.0 | 3.0 | 0.00 | 0.02 | 0.02 | 85 | 1012.6 |
| 20260902144543 | 85 | 36 | 1.0 | 3.0 | 0.00 | 0.02 | 0.02 | 85 | 1012.5 |
| 20260902144129 | 85 | 26 | 0.0 | 3.0 | 0.00 | 0.02 | 0.02 | 85 | 1012.6 |
| 20260902143630 | 85 | 90 | 0.0 | 3.0 | 0.00 | 0.02 | 0.02 | 86 | 1012.6 |
| 20260902143410 | 85 | 317 | 1.0 | 3.0 | 0.00 | 0.02 | 0.02 | 85 | 1012.6 |
| 20260902143026 | 84 | 317 | 0.0 | 3.0 | 0.00 | 0.02 | 0.02 | 85 | 1012.5 |
| 20260902142630 | 85 | 314 | 2.0 | 4.0 | 0.00 | 0.02 | 0.02 | 85 | 1012.6 |
| 20260902142128 | 84 | 355 | 1.0 | 4.0 | 0.00 | 0.02 | 0.02 | 86 | 1012.6 |
| 20260902141630 | 84 | 303 | 1.0 | 4.0 | 0.00 | 0.02 | 0.02 | 87 | 1012.6 |
| 20260902141510 | 84 | 28 | 1.0 | 4.0 | 0.00 | 0.02 | 0.02 | 87 | 1012.5 |
| 20260902141129 | 84 | 16 | 1.0 | 4.0 | 0.00 | 0.02 | 0.02 | 87 | 1012.6 |
| 20260902140630 | 83 | 271 | 1.0 | 3.0 | 0.00 | 0.02 | 0.02 | 89 | 1012.6 |
| 20260902140130 | 83 | 88 | 1.0 | 3.0 | 0.00 | 0.02 | 0.02 | 89 | 1012.5 |
| 20260902140004 | 82 | 44 | 0.0 | 3.0 | 0.00 | 0.02 | 0.02 | 89 | 1012.4 |
| 20260902135631 | 82 | 81 | 1.0 | 3.0 | 0.00 | 0.02 | 0.02 | 89 | 1012.5 |
| 20260902135129 | 82 | 339 | 1.0 | 2.0 | 0.00 | 0.02 | 0.02 | 90 | 1012.5 |
| 20260902134919 | 82 | 286 | 1.0 | 2.0 | 0.00 | 0.02 | 0.02 | 90 | 1012.5 |
| 20260902134505 | 81 | 289 | 0.0 | 2.0 | 0.00 | 0.02 | 0.02 | 90 | 1012.4 |
| 20260902134131 | 82 | 269 | 1.0 | 3.0 | 0.00 | 0.02 | 0.02 | 91 | 1012.5 |
| 20260902133630 | 82 | 299 | 1.0 | 3.0 | 0.00 | 0.02 | 0.02 | 91 | 1012.5 |
| 20260902133133 | 81 | 344 | 1.0 | 3.0 | 0.00 | 0.02 | 0.02 | 91 | 1012.5 |
| 20260902133010 | 81 | 342 | 1.0 | 3.0 | 0.00 | 0.02 | 0.02 | 92 | 1012.4 |
| 20260902132629 | 81 | 345 | 2.0 | 5.0 | 0.00 | 0.02 | 0.02 | 92 | 1012.5 |
| 20260902132129 | 81 | 355 | 2.0 | 5.0 | 0.00 | 0.02 | 0.02 | 92 | 1012.5 |
| 20260902131629 | 81 | 333 | 1.0 | 4.0 | 0.00 | 0.02 | 0.02 | 92 | 1012.5 |
| 20260902131504 | 81 | 19 | 0.0 | 3.0 | 0.00 | 0.02 | 0.02 | 93 | 1012.3 |
| 20260902131129 | 81 | 336 | 1.0 | 3.0 | 0.00 | 0.02 | 0.02 | 93 | 1012.5 |
| 20260902130630 | 81 | 19 | 2.0 | 4.0 | 0.00 | 0.02 | 0.02 | 93 | 1012.5 |
| 20260902130129 | 81 | 339 | 1.0 | 4.0 | 0.00 | 0.02 | 0.02 | 93 | 1012.3 |
| 20260902130007 | 80 | 336 | 0.0 | 4.0 | 0.00 | 0.02 | 0.02 | 93 | 1012.2 |
| 20260902125629 | 81 | 0 | 1.0 | 4.0 | 0.00 | 0.02 | 0.02 | 94 | 1012.3 |
| 20260902125426 | 80 | 304 | 1.0 | 3.0 | 0.00 | 0.02 | 0.02 | 93 | 1012.3 |
| 20260902124927 | 80 | 272 | 1.0 | 3.0 | 0.00 | 0.02 | 0.02 | 93 | 1012.2 |
| 20260902124504 | 80 | 277 | 0.0 | 2.0 | 0.00 | 0.02 | 0.02 | 93 | 1012.1 |
| 20260902124130 | 80 | 272 | 0.0 | 2.0 | 0.00 | 0.02 | 0.02 | 94 | 1012.2 |
| 20260902123630 | 80 | 323 | 0.0 | 1.0 | 0.00 | 0.02 | 0.02 | 94 | 1012.2 |
| 20260902123130 | 80 | 299 | 0.0 | 1.0 | 0.00 | 0.02 | 0.02 | 94 | 1012.0 |
| 20260902123058 | 79 | 299 | 0.0 | 1.0 | 0.00 | 0.02 | 0.02 | 94 | 1011.9 |
| 20260902122629 | 79 | 304 | 0.0 | 1.0 | 0.00 | 0.02 | 0.02 | 93 | 1012.0 |
| 20260902122130 | 79 | 317 | 0.0 | 0.0 | 0.00 | 0.02 | 0.02 | 94 | 1012.0 |
| 20260902121628 | 79 | 317 | 0.0 | 0.0 | 0.00 | 0.02 | 0.02 | 94 | 1012.0 |
| 20260902121533 | 78 | 317 | 0.0 | 0.0 | 0.00 | 0.02 | 0.02 | 94 | 1011.9 |
| 20260902121132 | 78 | 302 | 0.0 | 0.0 | 0.00 | 0.02 | 0.02 | 94 | 1012.0 |
| 20260902120630 | 78 | 302 | 0.0 | 0.0 | 0.00 | 0.02 | 0.02 | 94 | 1012.0 |
| 20260902120132 | 78 | 302 | 0.0 | 0.0 | 0.00 | 0.02 | 0.02 | 94 | 1011.8 |
| 20260902120031 | 78 | 302 | 0.0 | 0.0 | 0.00 | 0.02 | 0.02 | 94 | 1011.7 |
| 20260902115919 | 78 | 302 | 0.0 | 0.0 | 0.00 | 0.02 | 0.02 | 94 | 1011.8 |
| 20260902115129 | 78 | 302 | 0.0 | 0.0 | 0.00 | 0.02 | 0.02 | 94 | 1011.8 |
| 20260902114629 | 77 | 302 | 0.0 | 0.0 | 0.01 | 0.02 | 0.02 | 94 | 1011.7 |
| 20260902114508 | 77 | 302 | 0.0 | 0.0 | 0.01 | 0.02 | 0.02 | 94 | 1011.6 |
| 20260902114128 | 77 | 302 | 0.0 | 0.0 | 0.01 | 0.02 | 0.02 | 94 | 1011.7 |
| 20260902113630 | 77 | 302 | 0.0 | 0.0 | 0.02 | 0.02 | 0.02 | 94 | 1011.7 |
| 20260902113129 | 77 | 302 | 0.0 | 0.0 | 0.02 | 0.02 | 0.02 | 94 | 1011.7 |
| 20260902113002 | 77 | 302 | 0.0 | 0.0 | 0.02 | 0.02 | 0.02 | 94 | 1011.5 |
| 20260902112629 | 77 | 302 | 0.0 | 0.0 | 0.02 | 0.02 | 0.02 | 94 | 1011.7 |
| 20260902112129 | 77 | 302 | 0.0 | 0.0 | 0.02 | 0.02 | 0.02 | 94 | 1011.7 |
| 20260902111629 | 77 | 302 | 0.0 | 0.0 | 0.02 | 0.02 | 0.02 | 94 | 1011.6 |
| 20260902111503 | 76 | 302 | 0.0 | 0.0 | 0.02 | 0.02 | 0.02 | 94 | 1011.4 |
| 20260902111129 | 77 | 302 | 0.0 | 0.0 | 0.02 | 0.02 | 0.02 | 94 | 1011.6 |
| 20260902110630 | 77 | 302 | 0.0 | 0.0 | 0.02 | 0.02 | 0.02 | 94 | 1011.6 |
| 20260902110425 | 77 | 302 | 0.0 | 0.0 | 0.02 | 0.02 | 0.02 | 94 | 1011.5 |
| 20260902110003 | 76 | 302 | 0.0 | 0.0 | 0.02 | 0.02 | 0.02 | 94 | 1011.4 |
| 20260902105629 | 77 | 302 | 0.0 | 0.0 | 0.02 | 0.02 | 0.02 | 94 | 1011.5 |
| 20260902105130 | 77 | 302 | 0.0 | 0.0 | 0.02 | 0.02 | 0.02 | 94 | 1011.5 |
| 20260902104629 | 77 | 302 | 0.0 | 0.0 | 0.01 | 0.01 | 0.01 | 94 | 1011.4 |
| 20260902104505 | 76 | 302 | 0.0 | 0.0 | 0.01 | 0.01 | 0.01 | 94 | 1011.2 |
| 20260902104131 | 77 | 302 | 0.0 | 0.0 | 0.01 | 0.01 | 0.00 | 94 | 1011.4 |
| 20260902103631 | 77 | 302 | 0.0 | 0.0 | 0.00 | 0.00 | 0.00 | 94 | 1011.4 |
| 20260902103424 | 77 | 302 | 0.0 | 1.0 | 0.00 | 0.00 | 0.00 | 94 | 1011.0 |
| 20260902103048 | 76 | 302 | 0.0 | 1.0 | 0.00 | 0.00 | 0.00 | 94 | 1010.9 |
| 20260902102629 | 77 | 302 | 0.0 | 1.0 | 0.00 | 0.00 | 0.00 | 94 | 1011.0 |
| 20260902102130 | 77 | 302 | 0.0 | 1.0 | 0.00 | 0.00 | 0.00 | 93 | 1011.0 |
| 20260902101629 | 76 | 302 | 0.0 | 0.0 | 0.00 | 0.00 | 0.00 | 93 | 1011.2 |
| 20260902101537 | 76 | 302 | 0.0 | 0.0 | 0.00 | 0.00 | 0.00 | 93 | 1011.1 |
| 20260902101129 | 77 | 302 | 0.0 | 0.0 | 0.00 | 0.00 | 0.00 | 93 | 1011.2 |
| 20260902100629 | 76 | 302 | 0.0 | 0.0 | 0.00 | 0.00 | 0.00 | 93 | 1011.2 |
| 20260902100130 | 76 | 302 | 0.0 | 0.0 | 0.00 | 0.00 | 0.00 | 93 | 1011.2 |
| 20260902100030 | 76 | 302 | 0.0 | 0.0 | 0.00 | 0.00 | 0.00 | 93 | 1011.0 |
| 20260902095916 | 76 | 302 | 0.0 | 0.0 | 0.00 | 0.00 | 0.00 | 93 | 1011.2 |
| 20260902095419 | 76 | 302 | 0.0 | 0.0 | 0.00 | 0.00 | 0.00 | 93 | 1011.2 |
| 20260902094630 | 76 | 302 | 0.0 | 0.0 | 0.00 | 0.00 | 0.00 | 93 | 1011.0 |
| 20260902094534 | 76 | 302 | 0.0 | 0.0 | 0.00 | 0.00 | 0.00 | 93 | 1010.9 |
| 20260902094205 | 76 | 302 | 0.0 | 0.0 | 0.00 | 0.00 | 0.00 | 93 | 1011.0 |
| 20260902094153 | 76 | 302 | 0.0 | 0.0 | 0.00 | 0.00 | 0.00 | 93 | 1011.0 |
| 20260902093129 | 77 | 302 | 0.0 | 0.0 | 0.00 | 0.00 | 0.00 | 93 | 1011.0 |
| 20260902093025 | 76 | 302 | 0.0 | 0.0 | 0.00 | 0.00 | 0.00 | 93 | 1010.9 |
| 20260902092630 | 77 | 302 | 0.0 | 0.0 | 0.00 | 0.00 | 0.00 | 93 | 1011.0 |
| 20260902092130 | 77 | 302 | 0.0 | 0.0 | 0.00 | 0.00 | 0.00 | 93 | 1011.0 |
| 20260902091723 | 77 | 302 | 0.0 | 0.0 | 0.00 | 0.00 | 0.00 | 93 | 1011.2 |
| 20260902091702 | 77 | 302 | 0.0 | 0.0 | 0.00 | 0.00 | 0.00 | 93 | 1011.2 |
| 20260902091643 | 76 | 302 | 0.0 | 0.0 | 0.00 | 0.00 | 0.00 | 93 | 1011.0 |
| 20260902090631 | 77 | 302 | 0.0 | 0.0 | 0.00 | 0.00 | 0.00 | 93 | 1011.2 |
| 20260902090130 | 77 | 302 | 0.0 | 0.0 | 0.00 | 0.00 | 0.00 | 93 | 1011.0 |
| 20260902090002 | 76 | 302 | 0.0 | 0.0 | 0.00 | 0.00 | 0.00 | 93 | 1010.9 |
| 20260902085630 | 77 | 302 | 0.0 | 0.0 | 0.00 | 0.00 | 0.00 | 93 | 1011.0 |
| 20260902085131 | 77 | 302 | 0.0 | 0.0 | 0.00 | 0.00 | 0.00 | 93 | 1011.0 |
| 20260902084631 | 77 | 302 | 0.0 | 0.0 | 0.00 | 0.00 | 0.00 | 93 | 1010.8 |
| 20260902084607 | 76 | 302 | 0.0 | 0.0 | 0.00 | 0.00 | 0.00 | 93 | 1010.6 |
| 20260902084424 | 77 | 302 | 0.0 | 0.0 | 0.00 | 0.00 | 0.00 | 93 | 1010.8 |
| 20260902083630 | 76 | 302 | 0.0 | 0.0 | 0.00 | 0.00 | 0.00 | 93 | 1010.8 |
| 20260902083131 | 77 | 302 | 0.0 | 0.0 | 0.00 | 0.00 | 0.00 | 93 | 1011.0 |
| 20260902083110 | 76 | 302 | 0.0 | 0.0 | 0.00 | 0.00 | 0.00 | 93 | 1010.9 |
| 20260902082623 | 77 | 302 | 0.0 | 0.0 | 0.00 | 0.00 | 0.00 | 93 | 1011.0 |
| 20260902082122 | 77 | 302 | 0.0 | 1.0 | 0.00 | 0.00 | 0.00 | 93 | 1011.0 |
| 20260902081622 | 77 | 302 | 0.0 | 1.0 | 0.00 | 0.00 | 0.00 | 93 | 1011.0 |
| 20260902081531 | 76 | 302 | 0.0 | 1.0 | 0.00 | 0.00 | 0.00 | 93 | 1010.9 |
| 20260902081119 | 77 | 302 | 0.0 | 0.0 | 0.00 | 0.00 | 0.00 | 93 | 1011.0 |
| 20260902080618 | 77 | 303 | 0.0 | 0.0 | 0.00 | 0.00 | 0.00 | 93 | 1011.0 |
| 20260902080116 | 77 | 302 | 0.0 | 0.0 | 0.00 | 0.00 | 0.00 | 93 | 1011.0 |
| 20260902080033 | 76 | 302 | 0.0 | 0.0 | 0.00 | 0.00 | 0.00 | 93 | 1010.8 |
| 20260902075613 | 77 | 302 | 0.0 | 0.0 | 0.00 | 0.00 | 0.00 | 93 | 1011.0 |
| 20260902075405 | 77 | 302 | 0.0 | 0.0 | 0.00 | 0.00 | 0.00 | 93 | 1011.0 |
| 20260902074618 | 77 | 302 | 0.0 | 0.0 | 0.00 | 0.00 | 0.00 | 93 | 1011.0 |
| 20260902074526 | 76 | 302 | 0.0 | 0.0 | 0.00 | 0.00 | 0.00 | 93 | 1010.9 |
| 20260902074116 | 77 | 302 | 0.0 | 0.0 | 0.00 | 0.00 | 0.00 | 93 | 1011.0 |
| 20260902073902 | 77 | 302 | 0.0 | 0.0 | 0.00 | 0.00 | 0.00 | 93 | 1011.0 |
| 20260902073113 | 77 | 302 | 0.0 | 0.0 | 0.00 | 0.00 | 0.00 | 93 | 1011.0 |
| 20260902073008 | 76 | 302 | 0.0 | 0.0 | 0.00 | 0.00 | 0.00 | 93 | 1010.8 |
| 20260902072609 | 77 | 302 | 0.0 | 0.0 | 0.00 | 0.00 | 0.00 | 93 | 1011.0 |
| 20260902072109 | 77 | 302 | 0.0 | 0.0 | 0.00 | 0.00 | 0.00 | 93 | 1011.0 |
| 20260902071605 | 77 | 302 | 0.0 | 0.0 | 0.00 | 0.00 | 0.00 | 93 | 1011.0 |
| 20260902071504 | 76 | 302 | 0.0 | 0.0 | 0.00 | 0.00 | 0.00 | 93 | 1010.9 |
| 20260902071104 | 77 | 302 | 0.0 | 1.0 | 0.00 | 0.00 | 0.00 | 93 | 1011.0 |
| 20260902070602 | 77 | 302 | 0.0 | 1.0 | 0.00 | 0.00 | 0.00 | 93 | 1011.0 |
| 20260902070010 | 76 | 340 | 0.0 | 0.0 | 0.00 | 0.00 | 0.00 | 93 | 1010.9 |
| 20260902065606 | 77 | 340 | 0.0 | 0.0 | 0.00 | 0.00 | 0.00 | 93 | 1011.1 |
| 20260902065225 | 77 | 340 | 0.0 | 0.0 | 0.00 | 0.00 | 0.00 | 93 | 1011.1 |
| 20260902065219 | 77 | 340 | 0.0 | 0.0 | 0.00 | 0.00 | 0.00 | 92 | 1011.1 |
| 20260902065200 | 77 | 340 | 0.0 | 0.0 | 0.00 | 0.00 | 0.00 | 93 | 1011.1 |
| 20260902064557 | 76 | 340 | 0.0 | 0.0 | 0.00 | 0.00 | 0.00 | 93 | 1011.0 |
| 20260902063600 | 77 | 340 | 0.0 | 0.0 | 0.00 | 0.00 | 0.00 | 93 | 1011.1 |
| 20260902063102 | 77 | 340 | 0.0 | 0.0 | 0.00 | 0.00 | 0.00 | 93 | 1011.3 |
| 20260902063037 | 76 | 340 | 0.0 | 0.0 | 0.00 | 0.00 | 0.00 | 93 | 1011.1 |
| 20260902062602 | 77 | 340 | 0.0 | 0.0 | 0.00 | 0.00 | 0.00 | 92 | 1011.3 |
| 20260902062101 | 77 | 340 | 0.0 | 0.0 | 0.00 | 0.00 | 0.00 | 92 | 1011.3 |
| 20260902061601 | 77 | 340 | 0.0 | 0.0 | 0.00 | 0.00 | 0.00 | 92 | 1011.4 |
| 20260902061543 | 76 | 340 | 0.0 | 0.0 | 0.00 | 0.00 | 0.00 | 92 | 1011.3 |
| 20260902061058 | 77 | 340 | 0.0 | 0.0 | 0.00 | 0.00 | 0.00 | 92 | 1011.4 |
| 20260902060848 | 77 | 340 | 0.0 | 0.0 | 0.00 | 0.00 | 0.00 | 92 | 1011.4 |
| 20260902060057 | 77 | 340 | 0.0 | 0.0 | 0.00 | 0.00 | 0.00 | 92 | 1011.5 |
| 20260902060020 | 76 | 340 | 0.0 | 0.0 | 0.00 | 0.03 | 0.00 | 92 | 1011.3 |
| 20260902055556 | 77 | 340 | 0.0 | 0.0 | 0.00 | 0.00 | 0.00 | 92 | 1011.5 |
| 20260902055053 | 77 | 340 | 0.0 | 0.0 | 0.00 | 0.00 | 0.00 | 92 | 1011.5 |
| 20260902054553 | 77 | 340 | 0.0 | 0.0 | 0.00 | 0.00 | 0.00 | 92 | 1011.5 |
| 20260902054504 | 76 | 340 | 0.0 | 0.0 | 0.00 | 0.03 | 0.00 | 92 | 1011.4 |
| 20260902054050 | 77 | 340 | 0.0 | 0.0 | 0.00 | 0.00 | 0.00 | 92 | 1011.5 |
| 20260902053550 | 77 | 340 | 0.0 | 0.0 | 0.00 | 0.00 | 0.00 | 92 | 1011.5 |
| 20260902053052 | 77 | 340 | 0.0 | 0.0 | 0.00 | 0.00 | 0.00 | 92 | 1011.5 |
| 20260902053006 | 77 | 340 | 0.0 | 0.0 | 0.00 | 0.03 | 0.00 | 92 | 1011.4 |
| 20260902052548 | 77 | 340 | 0.0 | 0.0 | 0.00 | 0.00 | 0.00 | 92 | 1011.5 |
| 20260902052047 | 77 | 340 | 0.0 | 0.0 | 0.00 | 0.01 | 0.00 | 92 | 1011.5 |
| 20260902051830 | 77 | 340 | 0.0 | 0.0 | 0.00 | 0.01 | 0.00 | 92 | 1011.6 |
| 20260902051503 | 77 | 340 | 0.0 | 0.0 | 0.00 | 0.03 | 0.00 | 92 | 1011.5 |
| 20260902051035 | 77 | 340 | 0.0 | 0.0 | 0.00 | 0.03 | 0.00 | 92 | 1011.6 |
| 20260902050533 | 77 | 340 | 0.0 | 0.0 | 0.00 | 0.03 | 0.00 | 92 | 1011.6 |
| 20260902050039 | 76 | 340 | 0.0 | 0.0 | 0.00 | 0.03 | 0.00 | 92 | 1011.6 |
| 20260902050034 | 77 | 340 | 0.0 | 0.0 | 0.00 | 0.03 | 0.00 | 92 | 1011.7 |
| 20260902045532 | 77 | 340 | 0.0 | 0.0 | 0.00 | 0.03 | 0.00 | 92 | 1011.7 |
| 20260902045032 | 77 | 340 | 0.0 | 0.0 | 0.00 | 0.03 | 0.00 | 92 | 1011.7 |
| 20260902044534 | 77 | 340 | 0.0 | 0.0 | 0.00 | 0.03 | 0.00 | 92 | 1011.7 |
| 20260902044532 | 77 | 340 | 0.0 | 0.0 | 0.00 | 0.03 | 0.00 | 92 | 1011.5 |
| 20260902044314 | 77 | 340 | 0.0 | 0.0 | 0.00 | 0.03 | 0.00 | 92 | 1011.7 |
| 20260902043530 | 77 | 340 | 0.0 | 0.0 | 0.00 | 0.03 | 0.00 | 92 | 1011.7 |
| 20260902043029 | 77 | 340 | 0.0 | 0.0 | 0.00 | 0.03 | 0.00 | 92 | 1011.7 |
| 20260902043011 | 77 | 340 | 0.0 | 0.0 | 0.00 | 0.03 | 0.00 | 92 | 1011.5 |
| 20260902042531 | 77 | 340 | 0.0 | 0.0 | 0.00 | 0.03 | 0.00 | 92 | 1011.7 |
| 20260902042030 | 77 | 340 | 0.0 | 0.0 | 0.00 | 0.03 | 0.00 | 92 | 1011.7 |
| 20260902041531 | 77 | 340 | 0.0 | 0.0 | 0.00 | 0.03 | 0.00 | 92 | 1011.9 |
| 20260902041505 | 77 | 340 | 0.0 | 0.0 | 0.00 | 0.03 | 0.00 | 92 | 1011.8 |
| 20260902041031 | 77 | 340 | 0.0 | 0.0 | 0.00 | 0.03 | 0.00 | 92 | 1011.9 |
| 20260902040817 | 78 | 340 | 0.0 | 0.0 | 0.00 | 0.03 | 0.00 | 92 | 1011.9 |
| 20260902040030 | 78 | 340 | 0.0 | 0.0 | 0.00 | 0.03 | 0.00 | 92 | 1012.0 |
| 20260902040005 | 77 | 340 | 0.0 | 0.0 | 0.00 | 0.03 | 0.03 | 92 | 1011.9 |
| 20260902035818 | 78 | 340 | 0.0 | 0.0 | 0.00 | 0.03 | 0.03 | 92 | 1012.0 |
| 20260902035031 | 78 | 340 | 0.0 | 0.0 | 0.00 | 0.03 | 0.03 | 92 | 1012.0 |
| 20260902034529 | 78 | 340 | 0.0 | 0.0 | 0.00 | 0.03 | 0.03 | 91 | 1012.1 |
| 20260902034505 | 77 | 340 | 0.0 | 0.0 | 0.00 | 0.03 | 0.03 | 92 | 1012.0 |
| 20260902034029 | 78 | 340 | 0.0 | 0.0 | 0.00 | 0.03 | 0.03 | 92 | 1012.1 |
| 20260902033529 | 78 | 340 | 0.0 | 0.0 | 0.00 | 0.03 | 0.03 | 92 | 1012.1 |
| 20260902033042 | 78 | 340 | 0.0 | 0.0 | 0.00 | 0.03 | 0.03 | 91 | 1012.0 |
| 20260902033028 | 78 | 340 | 0.0 | 0.0 | 0.00 | 0.03 | 0.03 | 91 | 1012.1 |
| 20260902032530 | 78 | 340 | 0.0 | 0.0 | 0.00 | 0.03 | 0.03 | 91 | 1012.1 |
| 20260902032316 | 78 | 344 | 0.0 | 0.0 | 0.00 | 0.03 | 0.03 | 92 | 1012.1 |
| 20260902031815 | 78 | 344 | 0.0 | 0.0 | 0.00 | 0.03 | 0.03 | 91 | 1012.5 |
| 20260902031534 | 77 | 344 | 0.0 | 0.0 | 0.00 | 0.03 | 0.03 | 91 | 1012.4 |
| 20260902031030 | 78 | 344 | 0.0 | 0.0 | 0.00 | 0.03 | 0.03 | 91 | 1012.5 |
| 20260902030529 | 78 | 344 | 0.0 | 0.0 | 0.00 | 0.03 | 0.03 | 91 | 1012.5 |
| 20260902030029 | 78 | 344 | 0.0 | 0.0 | 0.00 | 0.03 | 0.03 | 91 | 1012.5 |
| 20260902030005 | 78 | 344 | 0.0 | 0.0 | 0.00 | 0.03 | 0.03 | 91 | 1012.4 |
| 20260902025530 | 78 | 344 | 0.0 | 0.0 | 0.00 | 0.03 | 0.03 | 91 | 1012.5 |
| 20260902025319 | 78 | 344 | 0.0 | 1.0 | 0.00 | 0.03 | 0.03 | 91 | 1012.5 |
| 20260902024530 | 78 | 344 | 0.0 | 1.0 | 0.00 | 0.03 | 0.03 | 91 | 1012.6 |
| 20260902024505 | 78 | 344 | 0.0 | 1.0 | 0.00 | 0.03 | 0.03 | 91 | 1012.4 |
| 20260902024030 | 78 | 344 | 0.0 | 0.0 | 0.00 | 0.03 | 0.03 | 91 | 1012.6 |
| 20260902023529 | 78 | 344 | 0.0 | 0.0 | 0.00 | 0.03 | 0.03 | 91 | 1012.6 |
| 20260902023038 | 78 | 344 | 0.0 | 0.0 | 0.00 | 0.03 | 0.03 | 91 | 1012.4 |
| 20260902023028 | 78 | 344 | 0.0 | 0.0 | 0.00 | 0.03 | 0.03 | 91 | 1012.6 |
| 20260902022531 | 78 | 344 | 0.0 | 0.0 | 0.00 | 0.03 | 0.03 | 91 | 1012.6 |
| 20260902022032 | 78 | 344 | 0.0 | 0.0 | 0.00 | 0.03 | 0.03 | 91 | 1012.6 |
| 20260902021537 | 78 | 344 | 0.0 | 0.0 | 0.00 | 0.03 | 0.03 | 91 | 1012.3 |
| 20260902021532 | 78 | 344 | 0.0 | 0.0 | 0.00 | 0.03 | 0.03 | 91 | 1012.5 |
| 20260902021030 | 78 | 344 | 0.0 | 0.0 | 0.00 | 0.03 | 0.03 | 91 | 1012.5 |
| 20260902020530 | 78 | 344 | 0.0 | 0.0 | 0.00 | 0.03 | 0.03 | 91 | 1012.5 |
| 20260902020036 | 78 | 344 | 0.0 | 0.0 | 0.00 | 0.03 | 0.03 | 90 | 1012.1 |
| 20260902020032 | 78 | 344 | 0.0 | 0.0 | 0.00 | 0.03 | 0.03 | 90 | 1012.2 |
| 20260902015530 | 78 | 344 | 0.0 | 0.0 | 0.00 | 0.03 | 0.03 | 90 | 1012.2 |
| 20260902015031 | 78 | 344 | 0.0 | 0.0 | 0.00 | 0.03 | 0.03 | 90 | 1012.2 |
| 20260902014536 | 78 | 344 | 0.0 | 0.0 | 0.00 | 0.03 | 0.03 | 90 | 1012.1 |
| 20260902014531 | 78 | 344 | 0.0 | 0.0 | 0.00 | 0.03 | 0.03 | 90 | 1012.2 |
| 20260902014030 | 79 | 344 | 0.0 | 0.0 | 0.00 | 0.03 | 0.03 | 90 | 1012.2 |
| 20260902013531 | 79 | 344 | 0.0 | 1.0 | 0.00 | 0.03 | 0.03 | 90 | 1012.2 |
| 20260902013108 | 79 | 344 | 0.0 | 1.0 | 0.00 | 0.03 | 0.03 | 90 | 1012.0 |
| 20260902013058 | 79 | 344 | 0.0 | 1.0 | 0.00 | 0.03 | 0.03 | 90 | 1012.0 |
| 20260902013034 | 78 | 344 | 0.0 | 1.0 | 0.00 | 0.03 | 0.03 | 90 | 1011.9 |
| 20260902012320 | 79 | 10 | 0.0 | 1.0 | 0.00 | 0.03 | 0.03 | 90 | 1012.0 |
| 20260902011538 | 78 | 10 | 0.0 | 1.0 | 0.00 | 0.03 | 0.03 | 89 | 1011.8 |
| 20260902011524 | 79 | 10 | 0.0 | 1.0 | 0.00 | 0.03 | 0.03 | 89 | 1011.9 |
| 20260902011021 | 79 | 11 | 0.0 | 2.0 | 0.00 | 0.03 | 0.03 | 89 | 1011.9 |
| 20260902010520 | 79 | 11 | 0.0 | 2.0 | 0.00 | 0.03 | 0.03 | 89 | 1011.9 |
| 20260902010311 | 79 | 336 | 0.0 | 2.0 | 0.00 | 0.03 | 0.03 | 89 | 1011.7 |
| 20260902005807 | 79 | 336 | 0.0 | 2.0 | 0.00 | 0.03 | 0.03 | 89 | 1011.7 |
| 20260902005018 | 80 | 327 | 0.0 | 2.0 | 0.00 | 0.03 | 0.03 | 88 | 1011.7 |
| 20260902004604 | 80 | 11 | 1.0 | 4.0 | 0.00 | 0.03 | 0.03 | 87 | 1011.9 |
| 20260902004558 | 80 | 328 | 0.0 | 3.0 | 0.00 | 0.03 | 0.03 | 88 | 1011.8 |
| 20260902004549 | 80 | 327 | 1.0 | 3.0 | 0.00 | 0.03 | 0.03 | 88 | 1011.9 |
| 20260902004532 | 80 | 327 | 0.0 | 3.0 | 0.00 | 0.03 | 0.03 | 88 | 1011.8 |
| 20260902003507 | 81 | 21 | 2.0 | 4.0 | 0.00 | 0.03 | 0.03 | 87 | 1011.9 |
| 20260902003030 | 81 | 42 | 1.0 | 7.0 | 0.00 | 0.03 | 0.03 | 88 | 1011.9 |
| 20260902003005 | 81 | 29 | 2.0 | 7.0 | 0.00 | 0.03 | 0.03 | 88 | 1012.0 |
| 20260902002504 | 81 | 44 | 1.0 | 7.0 | 0.00 | 0.03 | 0.03 | 88 | 1012.0 |
| 20260902002004 | 81 | 55 | 0.0 | 2.0 | 0.00 | 0.03 | 0.03 | 88 | 1012.0 |
| 20260902001532 | 81 | 82 | 0.0 | 1.0 | 0.00 | 0.03 | 0.03 | 88 | 1011.9 |
| 20260902001505 | 81 | 82 | 0.0 | 1.0 | 0.00 | 0.03 | 0.03 | 88 | 1012.0 |
| 20260902001003 | 81 | 82 | 0.0 | 1.0 | 0.00 | 0.03 | 0.03 | 88 | 1012.0 |
| 20260902000503 | 81 | 82 | 0.0 | 1.0 | 0.00 | 0.03 | 0.03 | 88 | 1012.0 |
| 20260902000009 | 81 | 82 | 0.0 | 0.0 | 0.00 | 0.03 | 0.03 | 88 | 1011.9 |
| 20260902000004 | 81 | 82 | 0.0 | 0.0 | 0.00 | 0.03 | 0.03 | 88 | 1012.0 |
| 20260901235503 | 81 | 82 | 0.0 | 1.0 | 0.00 | 0.03 | 0.03 | 89 | 1012.0 |
| 20260901235003 | 82 | 82 | 0.0 | 2.0 | 0.00 | 0.03 | 0.03 | 89 | 1012.0 |
| 20260901234507 | 81 | 83 | 0.0 | 5.0 | 0.00 | 0.03 | 0.03 | 89 | 1011.7 |
| 20260901234503 | 82 | 83 | 1.0 | 5.0 | 0.00 | 0.03 | 0.03 | 89 | 1011.8 |
| 20260901234002 | 82 | 104 | 2.0 | 5.0 | 0.00 | 0.03 | 0.03 | 89 | 1011.8 |
| 20260901233504 | 82 | 92 | 2.0 | 3.0 | 0.00 | 0.03 | 0.03 | 89 | 1011.8 |
| 20260901233011 | 82 | 95 | 1.0 | 3.0 | 0.00 | 0.03 | 0.03 | 88 | 1011.6 |
| 20260901233003 | 83 | 95 | 2.0 | 5.0 | 0.00 | 0.03 | 0.03 | 88 | 1011.7 |
| 20260901232502 | 83 | 80 | 3.0 | 6.0 | 0.00 | 0.03 | 0.03 | 88 | 1011.7 |
| 20260901232002 | 83 | 80 | 2.0 | 6.0 | 0.00 | 0.03 | 0.03 | 88 | 1011.7 |
| 20260901231600 | 83 | 90 | 1.0 | 4.0 | 0.00 | 0.03 | 0.03 | 87 | 1011.5 |
| 20260901231501 | 83 | 82 | 1.0 | 4.0 | 0.00 | 0.03 | 0.03 | 87 | 1011.6 |
| 20260901231002 | 83 | 24 | 2.0 | 6.0 | 0.00 | 0.03 | 0.03 | 87 | 1011.6 |